RPA3372 KBTV-KMDW

Flight info

Callsign RPA3372
Flight time N/A
Altitude 28000
Route DENYU LAGGS RAKAM Q913 DERLO Q907 SVM BAGEL PANGG7
Aircraft E75L/M-SDE3GILORVW/S

Departure

Time 2026-05-05 21:19
Airport Patrick Leahy Burlington International Airport (KBTV)

Arrival

Time N/A
Airport Chicago Midway International Airport (KMDW)
Time Latitude Longitude Altitude Speed Heading
2026-05-05 20:58 44.46893 -73.15407 337 ft 0 kts 321°
2026-05-05 21:10 44.46883 -73.15395 334 ft 2 kts 318°
2026-05-05 21:10 44.46871 -73.15379 336 ft 2 kts 314°
2026-05-05 21:10 44.46859 -73.15362 334 ft 2 kts 309°
2026-05-05 21:11 44.46850 -73.15343 337 ft 2 kts 302°
2026-05-05 21:11 44.46841 -73.15323 332 ft 2 kts 302°
2026-05-05 21:11 44.46834 -73.15313 332 ft 1 kts 339°
2026-05-05 21:11 44.46835 -73.15313 332 ft 0 kts 344°
2026-05-05 21:12 44.46837 -73.15314 332 ft 0 kts 349°
2026-05-05 21:14 44.46853 -73.15317 337 ft 5 kts 354°
2026-05-05 21:14 44.46888 -73.15302 337 ft 6 kts 41°
2026-05-05 21:14 44.46896 -73.15233 333 ft 9 kts 120°
2026-05-05 21:15 44.46838 -73.15202 335 ft 10 kts 172°
2026-05-05 21:15 44.46758 -73.15182 333 ft 13 kts 167°
2026-05-05 21:15 44.46663 -73.15159 334 ft 14 kts 172°
2026-05-05 21:15 44.46593 -73.15096 336 ft 12 kts 101°
2026-05-05 21:16 44.46596 -73.14982 339 ft 12 kts 89°
2026-05-05 21:16 44.46598 -73.14856 337 ft 14 kts 89°
2026-05-05 21:16 44.46602 -73.14720 340 ft 14 kts 87°
2026-05-05 21:16 44.46605 -73.14582 341 ft 14 kts 88°
2026-05-05 21:17 44.46570 -73.14461 349 ft 14 kts 131°
2026-05-05 21:17 44.46503 -73.14350 345 ft 15 kts 120°
2026-05-05 21:17 44.46543 -73.14240 344 ft 14 kts 36°
2026-05-05 21:17 44.46613 -73.14244 344 ft 11 kts 320°
2026-05-05 21:18 44.46708 -73.14395 353 ft 46 kts 308°
2026-05-05 21:18 44.47067 -73.14976 336 ft 109 kts 311°
2026-05-05 21:18 44.47676 -73.15974 347 ft 159 kts 312°
2026-05-05 21:18 44.48484 -73.17224 643 ft 184 kts 310°
2026-05-05 21:19 44.49311 -73.18565 949 ft 170 kts 307°
2026-05-05 21:19 44.50041 -73.19764 1036 ft 163 kts 309°
2026-05-05 21:19 44.50934 -73.20955 1196 ft 190 kts 314°
2026-05-05 21:19 44.51931 -73.22297 1624 ft 207 kts 311°
2026-05-05 21:20 44.53010 -73.23631 2446 ft 204 kts 312°
2026-05-05 21:20 44.54095 -73.24923 3206 ft 203 kts 312°